Location: NJAA Observatory
(40.6819°N, 74.8979°W)
Time: 20:10:28
(UTC-04:00)

Cosmos 1328 Rocket - Visible Passes

Search period start: 28 July 2016 00:00
Search period end: 07 August 2016 00:00
Orbit: 602 x 627 km, 82.5° (Epoch: 27 July)

Date Brightness Start Highest point End Pass type
(mag) Time Alt. Az. Time Alt. Az. Time Alt. Az.
28 Jul 6.4 05:02:11 10° SE 05:05:15 19° E 05:08:20 10° NE visible
29 Jul 5.5 05:17:06 10° SSE 05:21:04 33° E 05:25:02 10° NNE visible
01 Aug 6.3 04:28:41 10° SE 04:31:35 17° E 04:34:28 10° NE visible
02 Aug 5.5 04:43:30 10° SSE 04:47:22 30° E 04:51:14 10° NNE visible
03 Aug 4.3 04:58:56 10° S 05:03:15 56° E 05:07:35 10° NNE visible
04 Aug 3.5 05:14:48 10° S 05:19:14 79° W 05:23:39 10° N visible
05 Aug 6.3 03:55:13 10° ESE 03:57:54 16° E 04:00:34 10° NE visible
05 Aug 4.1 05:31:05 10° SSW 05:35:17 42° WNW 05:39:29 10° N visible
06 Aug 5.5 04:09:55 10° SSE 04:13:41 28° E 04:17:27 10° NNE visible
